Location: Fayetteville
(35.0530°N, 78.8790°W)
Time: 21:25:51
(UTC-05:00)

ISS - Visible Passes

Search period start: 10 February 2016 00:00
Search period end: 20 February 2016 00:00
Orbit: 399 x 408 km, 51.6° (Epoch: 10 February)

Date Brightness Start Highest point End Pass type
(mag) Time Alt. Az. Time Alt. Az. Time Alt. Az.
15 Feb -1.0 19:09:36 10° N 19:10:38 12° NNE 19:10:38 12° NNE visible
16 Feb -0.9 19:51:57 10° NW 19:52:56 17° NNW 19:52:56 17° NNW visible
17 Feb -1.9 18:59:27 10° NNW 19:02:06 22° NNE 19:02:40 21° NE visible
18 Feb -2.7 19:42:33 10° NW 19:45:12 54° WNW 19:45:12 54° WNW visible
19 Feb -3.1 18:49:42 10° NW 18:52:53 51° NE 18:55:15 16° ESE visible
19 Feb 0.2 20:27:50 10° WSW 20:27:55 10° WSW 20:27:55 10° WSW visible
